FW4718 Weather Reports


time (UTC)temp
C
wind
direction
speed
KPH
gust
KPH
rain 1hr
cm
rain 24hr
cm
rain mn
cm
humidity
%
barometer
mb
20260505184014 11 304 0.0 6.4 0.00 0.00 0.00 73 1013.6
20260505183512 11 0 0.0 3.2 0.00 0.00 0.00 72 1013.5
20260505183038 11 0 0.0 4.8 0.00 0.00 0.00 72 1013.6
20260505182511 11 0 0.0 4.8 0.00 0.00 0.00 73 1013.5
20260505182017 12 322 1.6 4.8 0.00 0.00 0.00 72 1013.5
20260505181529 12 323 0.0 4.8 0.00 0.00 0.00 72 1013.5
20260505181013 12 334 0.0 4.8 0.00 0.00 0.00 72 1013.3
20260505180516 12 0 1.6 4.8 0.00 0.00 0.00 72 1013.5
20260505180028 12 344 1.6 4.8 0.00 0.00 0.00 70 1013.5
20260505175513 12 348 1.6 6.4 0.00 0.00 0.00 70 1013.4
20260505175012 12 0 0.0 6.4 0.00 0.00 0.00 70 1013.5
20260505174530 12 355 0.0 6.4 0.00 0.00 0.00 71 1013.4
20260505174012 12 316 1.6 4.8 0.00 0.00 0.00 69 1013.5
20260505173511 12 304 0.0 4.8 0.00 0.00 0.00 68 1013.5
20260505173028 12 0 0.0 4.8 0.00 0.00 0.00 68 1013.5
20260505172511 12 0 0.0 11.3 0.00 0.00 0.00 68 1013.5
20260505172012 12 21 1.6 11.3 0.00 0.00 0.00 70 1013.4
20260505171528 12 360 3.2 11.3 0.00 0.00 0.00 70 1013.6
20260505171012 12 5 3.2 11.3 0.00 0.00 0.00 70 1013.5
20260505170512 12 344 3.2 11.3 0.00 0.00 0.00 69 1013.5
20260505170036 12 347 0.0 4.8 0.00 0.00 0.00 69 1013.6
20260505165511 12 324 1.6 4.8 0.00 0.00 0.00 66 1013.6
20260505165012 12 48 1.6 11.3 0.00 0.00 0.00 68 1013.5
20260505164534 12 12 1.6 11.3 0.00 0.00 0.00 69 1013.5
20260505164012 12 345 1.6 6.4 0.00 0.00 0.00 68 1013.5
20260505163508 12 345 1.6 6.4 0.00 0.00 0.00 67 1013.5
20260505163029 12 0 1.6 6.4 0.00 0.00 0.00 67 1013.5
20260505162515 12 335 1.6 12.9 0.00 0.00 0.00 66 1013.4
20260505162011 13 325 3.2 12.9 0.00 0.00 0.00 67 1013.4
20260505161530 13 319 3.2 12.9 0.00 0.00 0.00 66 1013.3
20260505161011 13 355 1.6 12.9 0.00 0.00 0.00 69 1013.2
20260505160516 12 5 3.2 8.0 0.00 0.00 0.00 68 1013.2
20260505153028 13 338 1.6 9.7 0.00 0.00 0.00 64 1013.5
20260505152512 13 308 1.6 4.8 0.00 0.00 0.00 65 1013.4
20260505152013 13 0 1.6 6.4 0.00 0.00 0.00 65 1013.5
20260505151534 13 296 0.0 8.0 0.00 0.00 0.00 63 1013.6
20260505151012 13 31 1.6 8.0 0.00 0.00 0.00 67 1013.5
20260505150513 13 49 1.6 8.0 0.00 0.00 0.00 68 1013.5
20260505140512 13 314 1.6 8.0 0.00 0.00 0.00 64 1013.7
20260505125011 13 0 3.2 11.3 0.00 0.00 0.00 66 1013.9
20260505124528 13 350 3.2 11.3 0.00 0.00 0.00 66 1013.9
20260505124010 13 351 1.6 8.0 0.00 0.00 0.00 67 1013.8
20260505123511 13 10 3.2 8.0 0.00 0.00 0.00 65 1013.9
20260505123029 13 336 3.2 8.0 0.00 0.00 0.00 64 1013.8
20260505122512 13 342 1.6 9.7 0.00 0.00 0.00 65 1013.8
20260505122015 14 346 3.2 16.1 0.00 0.00 0.00 62 1013.9
20260505121536 14 42 3.2 16.1 0.00 0.00 0.00 63 1013.9
20260505121008 13 36 3.2 8.0 0.00 0.00 0.00 66 1013.8
20260505120516 13 352 1.6 8.0 0.00 0.00 0.00 64 1014.0
20260505120030 13 11 1.6 8.0 0.00 0.00 0.00 64 1013.9
20260505115509 14 53 3.2 16.1 0.00 0.00 0.00 62 1013.9
20260505115015 15 338 1.6 16.1 0.00 0.00 0.00 61 1013.8
20260505114530 15 24 3.2 16.1 0.00 0.00 0.00 64 1013.9
20260505114012 14 0 1.6 16.1 0.00 0.00 0.00 68 1014.0
20260505113511 13 360 3.2 16.1 0.00 0.00 0.00 70 1014.1
20260505113038 12 57 3.2 6.4 0.00 0.00 0.00 65 1014.2
20260505112511 12 348 3.2 6.4 0.00 0.00 0.00 66 1014.1
20260505112011 13 327 3.2 11.3 0.00 0.00 0.00 65 1014.2
20260505111540 13 317 1.6 14.5 0.00 0.00 0.00 64 1014.2
20260505111008 13 59 3.2 14.5 0.00 0.00 0.00 72 1014.3
20260505110508 13 327 1.6 12.9 0.00 0.00 0.00 67 1014.1
20260505102011 12 19 1.6 8.0 0.00 0.00 0.00 70 1014.6
20260505101533 12 16 3.2 14.5 0.00 0.00 0.00 72 1014.6
20260505101009 12 24 1.6 14.5 0.00 0.00 0.00 71 1014.6
20260505100508 13 304 3.2 14.5 0.00 0.00 0.00 74 1014.5
20260505100028 12 71 3.2 8.0 0.00 0.00 0.00 76 1014.5
20260505095508 12 355 1.6 6.4 0.00 0.00 0.00 76 1014.6
20260505095012 11 83 1.6 8.0 0.00 0.00 0.00 74 1014.7
20260505094530 12 9 1.6 8.0 0.00 0.00 0.00 73 1014.6
20260505094011 12 15 1.6 8.0 0.00 0.00 0.00 73 1014.6
20260505093511 11 348 1.6 8.0 0.00 0.00 0.00 74 1014.6
20260505093034 11 27 1.6 14.5 0.00 0.00 0.00 74 1014.6
20260505092512 11 0 3.2 14.5 0.00 0.00 0.00 75 1014.8
20260505092013 11 304 3.2 11.3 0.00 0.00 0.00 75 1014.7
20260505091529 11 75 3.2 11.3 0.00 0.00 0.00 76 1014.6
20260505091012 11 342 1.6 12.9 0.00 0.00 0.00 76 1014.7
20260505090511 11 0 3.2 12.9 0.00 0.00 0.00 77 1014.7
20260505090032 11 323 1.6 4.8 0.00 0.00 0.00 76 1014.7
20260505085512 10 31 1.6 8.0 0.00 0.00 0.00 76 1014.7
20260505085010 11 9 1.6 8.0 0.00 0.00 0.00 76 1014.8
20260505084531 11 5 1.6 8.0 0.00 0.00 0.00 75 1014.9
20260505084014 11 321 1.6 11.3 0.00 0.00 0.00 78 1014.9
20260505083513 12 9 1.6 11.3 0.00 0.00 0.00 80 1014.9
20260505083031 11 11 4.8 11.3 0.00 0.00 0.00 81 1014.9
20260505082511 11 13 3.2 11.3 0.00 0.00 0.00 82 1015.0
20260505082011 10 61 3.2 9.7 0.00 0.00 0.00 84 1015.0
20260505081530 10 55 1.6 6.4 0.00 0.00 0.00 82 1015.1
20260505081013 10 0 0.0 8.0 0.00 0.00 0.00 83 1015.1
20260505080510 10 0 1.6 8.0 0.00 0.00 0.00 83 1015.1
20260505080031 10 352 1.6 8.0 0.00 0.00 0.00 84 1015.2
20260505075507 10 0 1.6 8.0 0.00 0.00 0.00 83 1015.2
20260505075008 9 355 1.6 8.0 0.00 0.00 0.00 83 1015.2
20260505074530 9 5 1.6 8.0 0.00 0.00 0.00 85 1015.0
20260505074010 9 350 1.6 8.0 0.00 0.00 0.00 88 1015.1
20260505073509 9 48 3.2 8.0 0.00 0.00 0.00 88 1015.1
20260505073030 9 338 1.6 8.0 0.00 0.00 0.00 87 1015.1
20260505072511 9 325 1.6 6.4 0.00 0.00 0.00 87 1014.9
20260505072011 9 306 1.6 6.4 0.00 0.00 0.00 87 1015.1
20260505071532 9 350 1.6 6.4 0.00 0.00 0.00 87 1015.0
20260505071011 9 49 1.6 6.4 0.00 0.00 0.00 88 1015.0
20260505070511 8 5 3.2 11.3 0.00 0.00 0.00 88 1015.0
20260505070029 8 360 3.2 11.3 0.00 0.00 0.00 88 1015.0
20260505065511 8 19 0.0 3.2 0.00 0.00 0.00 88 1015.1
20260505065007 8 0 0.0 3.2 0.00 0.00 0.00 88 1015.1
20260505064529 8 0 0.0 3.2 0.00 0.00 0.00 89 1015.1
20260505064008 8 0 0.0 0.0 0.00 0.00 0.00 89 1015.2
20260505063509 8 0 0.0 0.0 0.00 0.00 0.00 90 1015.1
20260505063030 8 0 0.0 0.0 0.00 0.00 0.00 90 1015.1
20260505062512 8 0 0.0 0.0 0.00 0.00 0.00 90 1015.1
20260505062010 8 0 0.0 0.0 0.00 0.00 0.00 91 1015.2
20260505061534 8 0 0.0 0.0 0.00 0.00 0.00 91 1015.2
20260505061012 8 0 0.0 0.0 0.00 0.00 0.00 91 1015.2
20260505060512 8 0 0.0 0.0 0.00 0.00 0.00 91 1015.1
20260505060028 8 0 0.0 0.0 0.00 0.00 0.00 91 1015.1
20260505055514 7 0 0.0 0.0 0.00 0.00 0.00 91 1015.0
20260505055014 7 0 0.0 1.6 0.00 0.00 0.00 91 1015.0
20260505054542 7 0 0.0 3.2 0.00 0.00 0.00 91 1015.0
20260505054013 7 5 0.0 3.2 0.00 0.00 0.00 91 1015.0
20260505053511 7 0 0.0 3.2 0.00 0.00 0.00 91 1015.0
20260505053029 7 0 0.0 4.8 0.00 0.00 0.00 91 1014.9
20260505052510 7 0 1.6 4.8 0.00 0.00 0.00 91 1014.9
20260505052009 7 333 1.6 3.2 0.00 0.00 0.00 91 1014.9
20260505051527 7 0 1.6 3.2 0.00 0.00 0.00 91 1014.9
20260505051009 7 293 1.6 3.2 0.00 0.00 0.00 91 1014.7
20260505050514 7 293 1.6 3.2 0.00 0.00 0.00 91 1014.9
20260505041530 7 15 1.6 4.8 0.00 0.00 0.00 90 1014.6
20260505041009 7 16 1.6 4.8 0.00 0.00 0.00 90 1014.6
20260505040511 7 335 1.6 4.8 0.00 0.00 0.00 90 1014.5
20260505040038 7 333 1.6 4.8 0.00 0.00 0.00 91 1014.6
20260505035514 7 337 1.6 4.8 0.00 0.00 0.00 92 1014.7
20260505035011 7 338 1.6 4.8 0.00 0.00 0.00 92 1014.6
20260505034538 7 338 1.6 4.8 0.00 0.00 0.00 93 1014.7
20260505034011 7 343 0.0 3.2 0.00 0.00 0.00 94 1014.7
20260505033511 7 0 0.0 0.0 0.00 0.00 0.00 95 1014.7
20260505033028 7 0 0.0 0.0 0.00 0.00 0.00 96 1014.7
20260505032512 6 0 0.0 0.0 0.00 0.00 0.00 96 1014.7
20260505032009 6 0 0.0 0.0 0.00 0.00 0.00 96 1014.7
20260505031530 6 0 0.0 0.0 0.00 0.00 0.00 96 1014.7
20260505031008 6 0 0.0 0.0 0.00 0.00 0.00 96 1014.8
20260505030511 6 0 0.0 0.0 0.00 0.00 0.00 96 1014.8
20260505030030 6 0 0.0 0.0 0.00 0.00 0.00 97 1014.8
20260505025513 6 0 0.0 1.6 0.00 0.00 0.00 97 1014.8
20260505025010 6 0 0.0 3.2 0.00 0.00 0.00 97 1014.9
20260505024529 6 0 0.0 3.2 0.00 0.00 0.00 97 1014.9
20260505024011 6 350 0.0 3.2 0.00 0.00 0.00 97 1014.9
20260505023511 6 350 1.6 3.2 0.00 0.00 0.00 97 1014.9
20260505023030 7 350 0.0 3.2 0.00 0.00 0.00 97 1014.9
20260505022508 7 350 0.0 3.2 0.00 0.00 0.00 97 1015.0
20260505022009 7 350 0.0 3.2 0.00 0.00 0.00 97 1015.1
20260505021528 7 350 1.6 3.2 0.00 0.00 0.00 97 1015.1
20260505021012 7 0 0.0 3.2 0.00 0.00 0.00 97 1015.1
20260505020510 7 77 1.6 3.2 0.00 0.00 0.00 98 1015.0
20260505020037 6 81 0.0 3.2 0.00 0.00 0.00 97 1015.0
20260505015511 6 0 0.0 3.2 0.00 0.00 0.00 98 1015.1
20260505015013 6 0 0.0 3.2 0.00 0.00 0.00 98 1015.0
20260505014529 5 0 0.0 0.0 0.00 0.00 0.00 96 1015.2
20260505014011 5 0 0.0 0.0 0.00 0.00 0.00 96 1015.2
20260505013511 5 0 0.0 0.0 0.00 0.00 0.00 96 1015.2
20260505013030 5 0 0.0 0.0 0.00 0.00 0.00 95 1015.2
20260505012511 5 0 0.0 0.0 0.00 0.00 0.00 95 1015.3
20260505012012 5 0 0.0 0.0 0.00 0.00 0.00 95 1015.3
20260505011529 5 0 0.0 0.0 0.00 0.00 0.00 95 1015.2
20260505011012 5 0 0.0 0.0 0.00 0.00 0.00 95 1015.3
20260505010510 5 0 0.0 0.0 0.00 0.00 0.00 95 1015.4
20260505010028 5 0 0.0 0.0 0.00 0.00 0.00 95 1015.4
20260505005511 5 0 0.0 0.0 0.00 0.00 0.00 95 1015.5
20260505005012 5 0 0.0 0.0 0.00 0.00 0.00 95 1015.4
20260505004530 6 0 0.0 0.0 0.00 0.00 0.00 95 1015.4
20260505004010 6 0 0.0 0.0 0.00 0.00 0.00 96 1015.5
20260505003514 6 0 0.0 0.0 0.00 0.00 0.00 96 1015.5
20260505003030 6 0 0.0 0.0 0.00 0.00 0.00 96 1015.6
20260505002511 6 0 0.0 0.0 0.00 0.00 0.00 96 1015.6
20260505002011 6 0 0.0 0.0 0.00 0.00 0.00 96 1015.5
20260505001528 6 0 0.0 0.0 0.00 0.00 0.00 96 1015.7
20260505001012 6 0 0.0 0.0 0.00 0.00 0.00 96 1015.7
20260505000510 6 0 0.0 0.0 0.00 0.00 0.00 97 1015.7
20260505000042 6 0 0.0 0.0 0.00 0.00 0.00 96 1015.7
20260504235535 6 0 0.0 0.0 0.00 0.00 0.00 95 1015.8
20260504235012 6 0 0.0 0.0 0.00 0.00 0.00 95 1015.9
20260504234529 6 0 0.0 0.0 0.00 0.00 0.00 95 1015.9
20260504234010 6 0 0.0 0.0 0.00 0.00 0.00 95 1015.9
20260504233512 6 0 0.0 0.0 0.00 0.00 0.00 95 1015.8
20260504233030 6 0 0.0 0.0 0.00 0.00 0.00 95 1015.8
20260504232511 6 0 0.0 0.0 0.00 0.00 0.00 94 1015.8
20260504232012 6 0 0.0 0.0 0.00 0.00 0.00 94 1015.9
20260504231529 6 0 0.0 0.0 0.00 0.00 0.00 95 1015.9
20260504231013 6 0 0.0 0.0 0.00 0.00 0.00 95 1015.9
20260504230510 7 0 0.0 0.0 0.00 0.00 0.00 96 1016.0
20260504230029 6 0 0.0 0.0 0.00 0.00 0.00 96 1016.0
20260504225510 6 0 0.0 0.0 0.00 0.00 0.00 94 1016.0
20260504225010 6 0 0.0 0.0 0.00 0.00 0.00 93 1015.9
20260504224528 6 0 0.0 0.0 0.00 0.00 0.00 93 1015.8
20260504224013 6 0 0.0 0.0 0.00 0.00 0.00 93 1015.9
20260504223512 6 0 0.0 0.0 0.00 0.00 0.00 93 1015.9
20260504223029 6 0 0.0 0.0 0.00 0.00 0.00 93 1015.9
20260504222510 6 0 0.0 0.0 0.00 0.00 0.00 93 1015.9
20260504222011 6 0 0.0 0.0 0.00 0.00 0.00 93 1015.9
20260504221530 6 0 0.0 0.0 0.00 0.00 0.00 94 1015.9
20260504221010 6 0 0.0 0.0 0.00 0.00 0.00 93 1015.9
20260504220510 7 0 0.0 0.0 0.00 0.00 0.00 93 1015.9
20260504220041 7 0 0.0 0.0 0.00 0.00 0.00 93 1016.0
20260504215513 7 0 0.0 0.0 0.00 0.00 0.00 93 1016.1
20260504215011 7 0 0.0 0.0 0.00 0.00 0.00 93 1016.1
20260504214530 7 0 0.0 0.0 0.00 0.00 0.00 93 1016.1
20260504214012 7 0 0.0 0.0 0.00 0.00 0.00 93 1015.9
20260504213511 7 0 0.0 0.0 0.00 0.00 0.00 93 1015.9
20260504213035 7 0 0.0 0.0 0.00 0.00 0.00 93 1015.9
20260504212511 7 0 0.0 0.0 0.00 0.00 0.00 92 1016.0
20260504212014 7 0 0.0 0.0 0.00 0.00 0.00 92 1016.0
20260504211538 7 0 0.0 0.0 0.00 0.00 0.00 92 1016.0
20260504211011 8 0 0.0 0.0 0.00 0.00 0.00 92 1015.9
20260504210511 8 0 0.0 0.0 0.00 0.00 0.00 92 1015.9
20260504210030 8 0 0.0 0.0 0.00 0.00 0.00 92 1015.9
20260504205512 8 0 0.0 0.0 0.00 0.08 0.00 92 1015.9
20260504205012 8 0 0.0 0.0 0.00 0.08 0.00 92 1015.9
20260504204538 8 0 0.0 0.0 0.00 0.08 0.00 91 1015.9
20260504204011 8 0 0.0 0.0 0.00 0.08 0.00 91 1015.7
20260504203511 8 0 0.0 0.0 0.00 0.08 0.00 90 1015.8
20260504203030 8 0 0.0 0.0 0.00 0.08 0.00 90 1015.8
20260504202511 8 0 0.0 0.0 0.00 0.08 0.00 89 1015.7
20260504202011 8 0 0.0 3.2 0.00 0.08 0.00 88 1015.9
20260504201530 9 0 0.0 3.2 0.00 0.08 0.00 88 1015.7
20260504201014 9 0 0.0 4.8 0.00 0.08 0.00 88 1015.7
20260504200512 9 0 0.0 4.8 0.00 0.08 0.00 87 1015.7
20260504200030 10 74 1.6 3.2 0.00 0.08 0.00 86 1015.6
20260504195511 10 0 0.0 1.6 0.00 0.08 0.00 85 1015.6
20260504195012 10 0 0.0 1.6 0.00 0.08 0.00 85 1015.7
20260504194530 10 0 0.0 1.6 0.00 0.08 0.00 85 1015.6
20260504194014 10 0 0.0 4.8 0.00 0.08 0.00 85 1015.6
20260504193512 11 74 0.0 6.4 0.00 0.08 0.00 85 1015.5
20260504193031 11 59 1.6 6.4 0.00 0.08 0.00 85 1015.4
20260504192514 11 73 0.0 4.8 0.00 0.08 0.00 84 1015.4
20260504192013 11 0 0.0 0.0 0.00 0.08 0.00 84 1015.4
20260504191532 11 0 0.0 0.0 0.00 0.08 0.00 83 1015.4
20260504191012 11 0 0.0 0.0 0.00 0.08 0.00 83 1015.5
20260504190516 11 0 0.0 6.4 0.00 0.08 0.00 83 1015.4
20260504190034 12 0 0.0 6.4 0.00 0.08 0.00 83 1015.5
20260504185511 12 71 0.0 3.2 0.00 0.08 0.00 83 1015.5
20260504185016 12 0 0.0 9.7 0.00 0.08 0.00 82 1015.4
20260504184530 12 0 0.0 11.3 0.00 0.08 0.00 82 1015.3